Location: Aldenham
(51.6667°N, 0.3500°W)
Time: 05:37:46
(UTC+00:00)

A-11 Canister half - Pass Details

Date: 23 February 2026
Orbit: 1512 x 1687 km, 47.2° (Epoch: 5 March)

Event Time Altitude Azimuth Distance (km) Brightness Sun altitude
Rises 20:33:31 0° 240° (WSW) 4,936 12.1 -28.6°
Reaches altitude 10° 20:36:44 10° 237° (WSW) 3,949 11.5 -29.1°
Maximum altitude 20:46:38 60° 161° (SSE) 1,877 9.1 -30.5°
Enters shadow 20:47:41 57° 137° (SE) 1,911 9.1 -30.6°
Drops below altitude 10° 20:56:20 10° 85° (E) 3,878 - -31.8°
Sets 20:59:28 0° 82° (E) 4,844 - -32.2°
